Location: Unspecified
(0.0000°N, 0.0000°E)
Time: 17:41:49
(UTC+00:00)

Vanguard 2 - All Passes

Search period start: 31 January 2015 00:00
Search period end: 10 February 2015 00:00
Orbit: 553 x 2946 km, 32.9° (Epoch: 30 January)

Date Brightness Start Highest point End Pass type
(mag) Time Alt. Az. Time Alt. Az. Time Alt. Az.
31 Jan - 06:31:38 10° WSW 06:35:52 75° NNW 06:41:53 10° NE daylight
31 Jan - 08:42:06 10° WNW 08:46:02 17° NNW 08:50:54 10° NNE daylight
31 Jan - 13:08:49 10° NNW 13:15:21 14° NNE 13:23:37 10° NE daylight
31 Jan - 15:17:12 10° NNW 15:31:23 35° NNE 15:46:40 10° E daylight
31 Jan - 17:27:48 10° NW 17:45:55 77° NE 18:00:48 10° ESE daylight
31 Jan - 19:42:26 10° WNW 19:58:36 46° SW 20:09:46 10° SSE visible
31 Jan - 22:05:44 10° SW 22:10:37 12° SSW 22:14:02 10° S visible
01 Feb - 04:43:54 10° SSW 04:46:44 19° SE 04:49:53 10° E visible
01 Feb - 06:50:58 10° W 06:55:04 40° NNW 07:00:48 10° NE daylight
01 Feb - 09:03:58 10° NNW 09:06:00 11° NNW 09:08:05 10° N daylight
01 Feb - 13:27:27 10° NNW 13:35:56 18° NNE 13:46:42 10° ENE daylight
01 Feb - 15:35:56 10° NW 15:51:21 44° NNE 16:07:26 10° E daylight
01 Feb - 17:47:07 10° NW 18:05:23 86° SW 18:20:03 10° SE daylight
01 Feb - 20:03:17 10° W 20:17:58 34° SW 20:28:14 10° SSE visible
02 Feb - 05:02:06 10° SSW 05:05:47 38° SE 05:09:59 10° ENE visible
02 Feb - 07:10:49 10° W 07:14:30 23° NNW 07:19:16 10° NNE daylight
02 Feb - 13:45:59 10° NNW 13:56:18 23° NNE 14:09:16 10° ENE daylight
02 Feb - 15:54:45 10° NW 16:11:07 55° NNE 16:27:40 10° ESE daylight
02 Feb - 18:06:43 10° WNW 18:24:48 69° SW 18:39:05 10° SE visible
02 Feb - 20:24:48 10° W 20:37:31 26° SSW 20:46:33 10° SSE visible
03 Feb - 05:20:51 10° SW 05:24:47 83° SE 05:29:26 10° ENE visible
03 Feb - 07:31:29 10° NW 07:34:08 14° NNW 07:37:06 10° N daylight
03 Feb - 12:00:08 10° NNE 12:01:15 10° NNE 12:03:11 10° NNE daylight
03 Feb - 14:04:30 10° NNW 14:16:25 29° NNE 14:31:11 10° E daylight
03 Feb - 16:13:41 10° NW 16:30:43 69° NE 16:47:30 10° ESE daylight
03 Feb - 18:26:42 10° WNW 18:44:13 55° SW 18:57:54 10° SE visible
03 Feb - 20:47:06 10° WSW 20:57:17 19° SSW 21:04:37 10° S visible
04 Feb - 03:33:05 10° S 03:35:27 15° SSE 03:37:47 10° ESE visible
04 Feb - 05:40:04 10° WSW 05:43:52 45° NNW 05:48:23 10° NE visible
04 Feb - 12:16:45 10° N 12:21:44 13° NNE 12:28:24 10° NE daylight
04 Feb - 14:23:04 10° NNW 14:36:18 38° NNE 14:52:26 10° E daylight
04 Feb - 16:32:48 10° NW 16:50:14 85° NE 17:06:59 10° SE daylight
04 Feb - 18:47:07 10° W 19:03:43 43° SW 19:16:34 10° SSE visible
04 Feb - 21:10:25 10° SW 21:17:18 14° SSW 21:22:19 10° S visible
05 Feb - 03:51:00 10° SSW 03:54:43 28° SSE 03:58:11 10° E visible
05 Feb - 05:59:50 10° W 06:03:06 23° NNW 06:06:52 10° NNE daylight
05 Feb - 12:34:38 10° N 12:41:59 18° NNE 12:51:55 10° ENE daylight
05 Feb - 14:41:42 10° NW 14:55:59 48° NE 15:13:04 10° ESE daylight
05 Feb - 16:52:10 10° WNW 17:09:42 78° SW 17:26:13 10° SE daylight
05 Feb - 19:08:07 10° W 19:23:23 33° SSW 19:35:07 10° SSE visible
06 Feb - 04:09:37 10° SW 04:13:50 60° SE 04:17:46 10° ENE visible
06 Feb - 06:20:36 10° NW 06:22:31 12° NNW 06:24:27 10° N daylight
06 Feb - 12:52:47 10° NNW 13:02:00 23° NNE 13:14:31 10° ENE daylight
06 Feb - 15:00:29 10° NW 15:15:31 62° NE 15:33:14 10° ESE daylight
06 Feb - 17:11:51 10° WNW 17:29:12 63° SW 17:45:12 10° SE daylight
06 Feb - 19:29:46 10° W 19:43:15 25° SSW 19:53:33 10° SSE visible
07 Feb - 02:21:13 10° S 02:23:59 14° SSE 02:26:30 10° ESE night (unlit)
07 Feb - 04:28:43 10° WSW 04:32:52 60° NW 04:36:50 10° NE visible
07 Feb - 13:11:06 10° NNW 13:21:46 31° NNE 13:36:20 10° E daylight
07 Feb - 15:19:25 10° NW 15:34:59 77° NE 15:52:59 10° ESE daylight
07 Feb - 17:31:54 10° WNW 17:48:49 50° SSW 18:04:02 10° SE daylight
07 Feb - 19:52:09 10° WSW 20:03:21 19° SSW 20:11:53 10° SSE visible
08 Feb - 02:39:06 10° SSW 02:43:29 25° SSE 02:46:59 10° E night (unlit)
08 Feb - 04:48:21 10° W 04:51:55 28° NNW 04:55:24 10° NNE visible
08 Feb - 11:25:13 10° N 11:28:21 12° NNE 11:32:51 10° NE daylight
08 Feb - 13:29:33 10° NNW 13:41:20 41° NE 13:57:27 10° E daylight
08 Feb - 15:38:34 10° NW 15:54:26 86° SW 16:12:25 10° SE daylight
08 Feb - 17:52:26 10° W 18:08:35 39° SSW 18:22:44 10° SSE daylight
08 Feb - 20:15:15 10° SW 20:23:43 15° SSW 20:30:11 10° S visible
09 Feb - 00:51:29 10° S 00:52:26 10° SSE 00:53:30 10° SSE night (unlit)
09 Feb - 02:57:40 10° SW 03:02:46 47° SSE 03:06:41 10° ENE night (unlit)
09 Feb - 05:08:50 10° WNW 05:11:05 14° NNW 05:13:13 10° N visible
09 Feb - 11:42:12 10° N 11:48:17 17° NNE 11:56:50 10° ENE daylight
09 Feb - 13:48:09 10° NW 14:00:45 53° NE 14:17:59 10° ESE daylight
09 Feb - 15:57:59 10° WNW 16:13:57 70° SW 16:31:35 10° SE daylight
09 Feb - 18:13:32 10° W 18:28:33 31° SSW 18:41:24 10° SSE visible
09 Feb - 20:38:55 10° SW 20:44:16 12° SSW 20:48:24 10° S visible
